TimeCDT,TemperatureF,Dew PointF,Humidity,Sea Level PressureIn,VisibilityMPH,Wind Direction,Wind SpeedMPH,Gust SpeedMPH,PrecipitationIn,Events,Conditions,WindDirDegrees,DateUTC
12:15 AM,77.0,69.8,78,30.03,10.0,Calm,Calm,-,N/A,,Unknown,0,2013-08-29 05:15:00
12:35 AM,77.0,69.8,78,30.03,10.0,Calm,Calm,-,N/A,,Unknown,0,2013-08-29 05:35:00
12:55 AM,77.0,69.8,78,30.03,10.0,Calm,Calm,-,N/A,,Unknown,0,2013-08-29 05:55:00
1:15 AM,75.2,68.0,78,30.03,10.0,Calm,Calm,-,N/A,,Unknown,0,2013-08-29 06:15:00
1:35 AM,75.2,69.8,83,30.03,10.0,Calm,Calm,-,N/A,,Unknown,0,2013-08-29 06:35:00
1:55 AM,75.2,69.8,83,30.03,10.0,Calm,Calm,-,N/A,,Unknown,0,2013-08-29 06:55:00
2:15 AM,75.2,69.8,83,30.03,10.0,Calm,Calm,-,N/A,,Unknown,0,2013-08-29 07:15:00
2:35 AM,75.2,69.8,83,30.03,10.0,Calm,Calm,-,N/A,,Unknown,0,2013-08-29 07:35:00
2:55 AM,73.4,69.8,88,30.03,10.0,Calm,Calm,-,N/A,,Unknown,0,2013-08-29 07:55:00
3:15 AM,73.4,69.8,88,30.03,10.0,Calm,Calm,-,N/A,,Unknown,0,2013-08-29 08:15:00
3:35 AM,73.4,69.8,88,30.04,10.0,Calm,Calm,-,N/A,,Unknown,0,2013-08-29 08:35:00
3:55 AM,73.4,69.8,88,30.03,10.0,Calm,Calm,-,N/A,,Unknown,0,2013-08-29 08:55:00
4:15 AM,73.4,69.8,88,30.03,10.0,Calm,Calm,-,N/A,,Unknown,0,2013-08-29 09:15:00
4:35 AM,73.4,69.8,88,30.04,10.0,Calm,Calm,-,N/A,,Unknown,0,2013-08-29 09:35:00
4:55 AM,71.6,69.8,94,30.04,10.0,Calm,Calm,-,N/A,,Unknown,0,2013-08-29 09:55:00
5:15 AM,71.6,69.8,94,30.05,10.0,Calm,Calm,-,N/A,,Unknown,0,2013-08-29 10:15:00
5:35 AM,71.6,69.8,94,30.05,9.0,Calm,Calm,-,N/A,,Unknown,0,2013-08-29 10:35:00
5:55 AM,71.6,69.8,94,30.06,10.0,Calm,Calm,-,N/A,,Unknown,0,2013-08-29 10:55:00
6:15 AM,71.6,69.8,94,30.06,9.0,Calm,Calm,-,N/A,,Unknown,0,2013-08-29 11:15:00
6:35 AM,71.6,69.8,94,30.06,10.0,Calm,Calm,-,N/A,,Unknown,0,2013-08-29 11:35:00
6:55 AM,71.6,68.0,88,30.06,10.0,Calm,Calm,-,N/A,,Unknown,0,2013-08-29 11:55:00
7:15 AM,71.6,69.8,94,30.07,8.0,Calm,Calm,-,N/A,,Unknown,0,2013-08-29 12:15:00
7:35 AM,71.6,69.8,94,30.07,8.0,Calm,Calm,-,N/A,,Unknown,0,2013-08-29 12:35:00
7:55 AM,73.4,69.8,88,30.08,7.0,Calm,Calm,-,N/A,,Unknown,0,2013-08-29 12:55:00
8:15 AM,78.8,71.6,78,30.08,7.0,Calm,Calm,-,N/A,,Unknown,0,2013-08-29 13:15:00
8:35 AM,80.6,71.6,74,30.08,8.0,Calm,Calm,-,N/A,,Unknown,0,2013-08-29 13:35:00
8:55 AM,82.4,69.8,66,30.09,9.0,South,3.5,-,N/A,,Unknown,190,2013-08-29 13:55:00
9:15 AM,84.2,69.8,62,30.09,10.0,Calm,Calm,-,N/A,,Unknown,0,2013-08-29 14:15:00
9:35 AM,84.2,69.8,62,30.09,10.0,SW,3.5,-,N/A,,Unknown,230,2013-08-29 14:35:00
9:55 AM,87.8,69.8,55,30.09,10.0,Calm,Calm,-,N/A,,Unknown,0,2013-08-29 14:55:00
10:15 AM,89.6,68.0,49,30.09,10.0,Calm,Calm,-,N/A,,Unknown,0,2013-08-29 15:15:00
10:35 AM,91.4,68.0,46,30.09,9.0,Calm,Calm,-,N/A,,Unknown,0,2013-08-29 15:35:00
10:55 AM,91.4,68.0,46,30.09,10.0,Calm,Calm,-,N/A,,Unknown,0,2013-08-29 15:55:00
11:15 AM,93.2,68.0,44,30.09,10.0,Calm,Calm,-,N/A,,Unknown,0,2013-08-29 16:15:00
11:35 AM,93.2,66.2,41,30.09,10.0,Calm,Calm,-,N/A,,Unknown,0,2013-08-29 16:35:00
11:55 AM,95.0,66.2,39,30.08,10.0,NNW,3.5,-,N/A,,Unknown,330,2013-08-29 16:55:00
12:15 PM,95.0,64.4,36,30.07,10.0,Calm,Calm,-,N/A,,Unknown,0,2013-08-29 17:15:00
12:35 PM,96.8,64.4,34,30.06,10.0,NW,5.8,-,N/A,,Unknown,320,2013-08-29 17:35:00
12:55 PM,96.8,60.8,30,30.05,10.0,Calm,Calm,-,N/A,,Unknown,0,2013-08-29 17:55:00
1:15 PM,98.6,62.6,30,30.04,10.0,North,4.6,-,N/A,,Unknown,10,2013-08-29 18:15:00
1:35 PM,98.6,62.6,30,30.03,10.0,South,4.6,-,N/A,,Unknown,180,2013-08-29 18:35:00
1:55 PM,98.6,59.0,27,30.03,10.0,Calm,Calm,-,N/A,,Unknown,0,2013-08-29 18:55:00
2:15 PM,98.6,60.8,29,30.02,10.0,Calm,Calm,-,N/A,,Unknown,0,2013-08-29 19:15:00
2:35 PM,98.6,60.8,29,30.01,10.0,Calm,Calm,-,N/A,,Unknown,0,2013-08-29 19:35:00
2:55 PM,96.8,60.8,30,30.00,10.0,Calm,Calm,-,N/A,,Unknown,0,2013-08-29 19:55:00
3:15 PM,98.6,60.8,29,30.00,10.0,Calm,Calm,-,N/A,,Unknown,0,2013-08-29 20:15:00
3:35 PM,100.4,60.8,27,29.99,10.0,SW,3.5,-,N/A,,Unknown,230,2013-08-29 20:35:00
3:55 PM,98.6,60.8,29,29.99,10.0,Calm,Calm,-,N/A,,Unknown,0,2013-08-29 20:55:00
4:15 PM,100.4,60.8,27,29.98,10.0,Calm,Calm,-,N/A,,Unknown,0,2013-08-29 21:15:00
4:35 PM,100.4,60.8,27,29.98,10.0,NNE,3.5,-,N/A,,Unknown,20,2013-08-29 21:35:00
4:55 PM,100.4,60.8,27,29.97,10.0,Calm,Calm,-,N/A,,Unknown,0,2013-08-29 21:55:00
5:15 PM,100.4,59.0,25,29.96,10.0,NNW,3.5,-,N/A,,Unknown,330,2013-08-29 22:15:00
5:35 PM,100.4,60.8,27,29.96,10.0,Calm,Calm,-,N/A,,Unknown,0,2013-08-29 22:35:00
5:55 PM,100.4,59.0,25,29.96,10.0,Calm,Calm,-,N/A,,Unknown,0,2013-08-29 22:55:00
6:15 PM,100.4,59.0,25,29.96,10.0,Calm,Calm,-,N/A,,Unknown,0,2013-08-29 23:15:00
6:35 PM,100.4,59.0,25,29.96,10.0,North,3.5,-,N/A,,Unknown,350,2013-08-29 23:35:00
6:55 PM,98.6,59.0,27,29.96,10.0,Calm,Calm,-,N/A,,Unknown,0,2013-08-29 23:55:00
7:15 PM,98.6,60.8,29,29.96,10.0,Calm,Calm,-,N/A,,Unknown,0,2013-08-30 00:15:00
7:35 PM,96.8,62.6,32,29.96,10.0,Calm,Calm,-,N/A,,Unknown,0,2013-08-30 00:35:00
7:55 PM,91.4,62.6,38,29.97,10.0,Calm,Calm,-,N/A,,Unknown,0,2013-08-30 00:55:00
8:15 PM,87.8,64.4,46,29.97,9.0,Calm,Calm,-,N/A,,Unknown,0,2013-08-30 01:15:00
8:35 PM,86.0,64.4,48,29.97,10.0,Calm,Calm,-,N/A,,Unknown,0,2013-08-30 01:35:00
8:55 PM,84.2,64.4,51,29.98,9.0,Calm,Calm,-,N/A,,Unknown,0,2013-08-30 01:55:00
9:15 PM,84.2,64.4,51,29.98,10.0,Calm,Calm,-,N/A,,Unknown,0,2013-08-30 02:15:00
9:35 PM,82.4,66.2,58,29.99,10.0,Calm,Calm,-,N/A,,Unknown,0,2013-08-30 02:35:00
9:55 PM,82.4,66.2,58,29.99,10.0,Calm,Calm,-,N/A,,Unknown,0,2013-08-30 02:55:00
10:15 PM,80.6,66.2,61,29.99,10.0,Calm,Calm,-,N/A,,Unknown,0,2013-08-30 03:15:00
10:35 PM,80.6,69.8,70,29.99,10.0,Calm,Calm,-,N/A,,Unknown,0,2013-08-30 03:35:00
10:55 PM,82.4,68.0,62,30.00,10.0,Calm,Calm,-,N/A,,Unknown,0,2013-08-30 03:55:00
11:15 PM,78.8,68.0,69,30.00,10.0,Calm,Calm,-,N/A,,Unknown,0,2013-08-30 04:15:00
11:35 PM,80.6,66.2,61,30.00,10.0,SSE,3.5,-,N/A,,Unknown,150,2013-08-30 04:35:00
11:55 PM,84.2,64.4,51,30.00,10.0,SSE,3.5,-,N/A,,Unknown,150,2013-08-30 04:55:00